When you browse on this site, cookies collect data to enhance your experience and personalize the content and advertising you see.
Visit our Privacy Policy to learn more. By continuing to use the site, you agree to this use of cookies and data.
  • Em Portugal
  • Lista de países
  • Para 7 dias
  • Temperatura da água
  • Mapa do tempo
  • Widgets de tempo
  • user-avatar
    Iniciar Sessão

    Previsão horária em Podlas

    Hoje, 18 Setembro, Quarta-feira

    Tempo Temperatura Precipitação Vento Pressão Humidade
    00:00 +8°C° 0.1 mm 7 m/s 740 mmHg 83%
    01:00 +7°C° 0 mm 6 m/s 741 mmHg 85%
    02:00 +7°C° 0 mm 6 m/s 741 mmHg 85%
    03:00 +5°C° 0 mm 6 m/s 741 mmHg 84%
    04:00 +5°C° 0 mm 7 m/s 741 mmHg 84%
    05:00 +5°C° 0 mm 7 m/s 741 mmHg 82%
    06:00 +6°C° 0 mm 8 m/s 742 mmHg 79%
    07:00 +6°C° 0 mm 8 m/s 743 mmHg 76%
    08:00 +7°C° 0 mm 8 m/s 744 mmHg 73%
    09:00 +7°C° 0 mm 8 m/s 744 mmHg 70%
    10:00 +9°C° 0 mm 8 m/s 745 mmHg 67%
    11:00 +10°C° 0 mm 8 m/s 745 mmHg 64%
    12:00 +10°C° 0 mm 8 m/s 745 mmHg 62%
    13:00 +11°C° 0 mm 8 m/s 746 mmHg 59%
    14:00 +11°C° 0 mm 8 m/s 746 mmHg 58%
    15:00 +12°C° 0 mm 7 m/s 746 mmHg 58%
    16:00 +12°C° 0 mm 7 m/s 746 mmHg 57%
    17:00 +11°C° 0 mm 6 m/s 746 mmHg 62%
    18:00 +10°C° 0 mm 4 m/s 746 mmHg 67%
    19:00 +9°C° 0 mm 3 m/s 746 mmHg 72%
    20:00 +8°C° 0 mm 3 m/s 747 mmHg 73%
    21:00 +7°C° 0 mm 4 m/s 747 mmHg 74%
    22:00 +7°C° 0 mm 4 m/s 747 mmHg 76%
    23:00 +6°C° 0 mm 4 m/s 747 mmHg 76%

    Amanhã, 19 Setembro, Quinta-feira

    Tempo Temperatura Precipitação Vento Pressão Humidade
    00:00 +6°C° 0 mm 4 m/s 748 mmHg 77%
    01:00 +6°C° 0 mm 4 m/s 748 mmHg 78%
    02:00 +6°C° 0 mm 4 m/s 748 mmHg 77%
    03:00 +7°C° 0 mm 4 m/s 748 mmHg 76%
    04:00 +7°C° 0 mm 4 m/s 748 mmHg 75%
    05:00 +7°C° 0 mm 4 m/s 748 mmHg 75%
    06:00 +7°C° 0 mm 4 m/s 748 mmHg 74%
    07:00 +7°C° 0 mm 5 m/s 749 mmHg 74%
    08:00 +9°C° 0 mm 5 m/s 749 mmHg 67%
    09:00 +10°C° 0 mm 5 m/s 749 mmHg 60%
    10:00 +12°C° 0 mm 5 m/s 749 mmHg 54%
    11:00 +12°C° 0 mm 5 m/s 749 mmHg 53%
    12:00 +12°C° 0 mm 5 m/s 749 mmHg 52%
    13:00 +13°C° 0 mm 5 m/s 749 mmHg 52%
    14:00 +13°C° 0 mm 5 m/s 749 mmHg 53%
    15:00 +13°C° 0 mm 5 m/s 749 mmHg 54%
    16:00 +13°C° 0 mm 4 m/s 749 mmHg 54%
    17:00 +11°C° 0.2 mm 4 m/s 749 mmHg 63%
    18:00 +10°C° 0.2 mm 3 m/s 749 mmHg 71%
    19:00 +8°C° 0.2 mm 3 m/s 749 mmHg 80%
    20:00 +8°C° 0.1 mm 3 m/s 749 mmHg 82%
    21:00 +7°C° 0.1 mm 3 m/s 750 mmHg 85%
    22:00 +7°C° 0.1 mm 3 m/s 750 mmHg 88%
    23:00 +5°C° 0 mm 3 m/s 750 mmHg 89%

    Depois de amanhã, 20 Setembro, Sexta-feira

    Tempo Temperatura Precipitação Vento Pressão Humidade
    00:00 +5°C° 0 mm 3 m/s 750 mmHg 89%
    01:00 +5°C° 0 mm 3 m/s 750 mmHg 90%
    02:00 +4°C° 0 mm 3 m/s 750 mmHg 91%
    03:00 +4°C° 0 mm 3 m/s 750 mmHg 93%
    04:00 +4°C° 0 mm 3 m/s 751 mmHg 94%
    05:00 +4°C° 0 mm 3 m/s 751 mmHg 91%
    06:00 +5°C° 0 mm 3 m/s 751 mmHg 89%
    07:00 +7°C° 0 mm 3 m/s 751 mmHg 86%
    08:00 +7°C° 0 mm 4 m/s 751 mmHg 78%
    09:00 +10°C° 0 mm 4 m/s 752 mmHg 69%
    10:00 +12°C° 0 mm 4 m/s 752 mmHg 60%
    11:00 +13°C° 0.1 mm 4 m/s 752 mmHg 57%
    12:00 +13°C° 0.1 mm 5 m/s 751 mmHg 53%
    13:00 +14°C° 0.1 mm 5 m/s 751 mmHg 50%
    14:00 +14°C° 0.1 mm 4 m/s 751 mmHg 52%
    15:00 +13°C° 0.1 mm 4 m/s 751 mmHg 54%
    16:00 +13°C° 0.1 mm 3 m/s 751 mmHg 56%
    17:00 +12°C° 0 mm 3 m/s 751 mmHg 61%
    18:00 +10°C° 0 mm 2 m/s 751 mmHg 66%
    19:00 +10°C° 0 mm 1 m/s 751 mmHg 71%
    20:00 +9°C° 0 mm 1 m/s 751 mmHg 73%
    21:00 +9°C° 0 mm 1 m/s 751 mmHg 75%
    22:00 +8°C° 0 mm 1 m/s 752 mmHg 77%
    23:00 +8°C° 0 mm 1 m/s 752 mmHg 77%

    21 Setembro, Sábado

    Tempo Temperatura Precipitação Vento Pressão Humidade
    00:00 +6°C° 0 mm 2 m/s 752 mmHg 78%
    01:00 +6°C° 0 mm 2 m/s 752 mmHg 78%
    02:00 +7°C° 0 mm 1 m/s 752 mmHg 78%
    03:00 +7°C° 0 mm 1 m/s 752 mmHg 78%
    04:00 +6°C° 0 mm 1 m/s 751 mmHg 78%
    05:00 +7°C° 0 mm 1 m/s 751 mmHg 75%
    06:00 +8°C° 0 mm 1 m/s 751 mmHg 72%
    07:00 +9°C° 0 mm 1 m/s 751 mmHg 69%
    08:00 +11°C° 0 mm 1 m/s 751 mmHg 62%
    09:00 +13°C° 0 mm 1 m/s 751 mmHg 56%
    10:00 +15°C° 0 mm 2 m/s 751 mmHg 49%
    11:00 +16°C° 0 mm 2 m/s 751 mmHg 46%
    12:00 +17°C° 0 mm 2 m/s 750 mmHg 42%
    13:00 +18°C° 0 mm 2 m/s 750 mmHg 39%
    14:00 +18°C° 0 mm 2 m/s 750 mmHg 41%
    15:00 +19°C° 0 mm 1 m/s 749 mmHg 43%
    16:00 +19°C° 0 mm 1 m/s 749 mmHg 45%
    17:00 +16°C° 0 mm 1 m/s 749 mmHg 49%
    18:00 +14°C° 0 mm 1 m/s 749 mmHg 52%
    19:00 +12°C° 0 mm 1 m/s 749 mmHg 56%
    20:00 +11°C° 0 mm 1 m/s 749 mmHg 58%
    21:00 +11°C° 0 mm 1 m/s 749 mmHg 60%
    22:00 +10°C° 0 mm 1 m/s 749 mmHg 63%
    23:00 +10°C° 0 mm 1 m/s 749 mmHg 65%

    22 Setembro, Domingo

    Tempo Temperatura Precipitação Vento Pressão Humidade
    00:00 +10°C° 0 mm 1 m/s 748 mmHg 67%
    01:00 +9°C° 0 mm 1 m/s 748 mmHg 70%
    02:00 +9°C° 0 mm 1 m/s 748 mmHg 71%
    03:00 +8°C° 0 mm 1 m/s 748 mmHg 72%
    04:00 +8°C° 0 mm 1 m/s 747 mmHg 73%
    05:00 +9°C° 0 mm 1 m/s 747 mmHg 71%
    06:00 +10°C° 0 mm 1 m/s 747 mmHg 68%
    07:00 +11°C° 0 mm 1 m/s 747 mmHg 66%
    08:00 +13°C° 0 mm 2 m/s 747 mmHg 59%
    09:00 +15°C° 0 mm 2 m/s 747 mmHg 52%
    10:00 +17°C° 0 mm 2 m/s 747 mmHg 45%
    11:00 +19°C° 0 mm 3 m/s 746 mmHg 43%
    12:00 +20°C° 0 mm 3 m/s 746 mmHg 40%
    13:00 +21°C° 0 mm 3 m/s 745 mmHg 38%
    14:00 +21°C° 0 mm 3 m/s 745 mmHg 41%
    15:00 +20°C° 0 mm 3 m/s 744 mmHg 44%
    16:00 +20°C° 0 mm 3 m/s 744 mmHg 47%
    17:00 +18°C° 0 mm 3 m/s 743 mmHg 49%
    18:00 +16°C° 0 mm 3 m/s 743 mmHg 52%
    19:00 +13°C° 0 mm 3 m/s 743 mmHg 54%
    20:00 +13°C° 0 mm 3 m/s 743 mmHg 53%
    21:00 +13°C° 0 mm 3 m/s 742 mmHg 51%
    22:00 +13°C° 0 mm 3 m/s 742 mmHg 50%
    23:00 +13°C° 0 mm 3 m/s 741 mmHg 49%

    23 Setembro, Segunda-feira

    Tempo Temperatura Precipitação Vento Pressão Humidade
    00:00 +13°C° 0 mm 3 m/s 741 mmHg 49%
    01:00 +14°C° 0 mm 2 m/s 740 mmHg 48%
    02:00 +13°C° 0 mm 2 m/s 740 mmHg 48%
    03:00 +13°C° 0 mm 2 m/s 739 mmHg 48%
    04:00 +13°C° 0 mm 2 m/s 739 mmHg 48%
    05:00 +14°C° 0 mm 2 m/s 738 mmHg 50%
    06:00 +14°C° 0 mm 2 m/s 738 mmHg 52%
    07:00 +15°C° 0 mm 2 m/s 738 mmHg 55%
    08:00 +16°C° 0 mm 2 m/s 738 mmHg 52%
    09:00 +18°C° 0 mm 2 m/s 738 mmHg 50%
    10:00 +20°C° 0 mm 2 m/s 738 mmHg 48%
    11:00 +21°C° 0 mm 3 m/s 737 mmHg 49%
    12:00 +22°C° 0 mm 3 m/s 737 mmHg 49%
    13:00 +24°C° 0 mm 3 m/s 737 mmHg 50%
    14:00 +22°C° 0 mm 3 m/s 737 mmHg 53%
    15:00 +22°C° 0 mm 3 m/s 737 mmHg 56%
    16:00 +21°C° 0 mm 3 m/s 737 mmHg 59%
    17:00 +19°C° 0 mm 3 m/s 737 mmHg 62%
    18:00 +18°C° 0 mm 3 m/s 737 mmHg 65%
    19:00 +15°C° 0 mm 4 m/s 737 mmHg 68%
    20:00 +15°C° 0 mm 4 m/s 737 mmHg 74%
    21:00 +15°C° 0 mm 4 m/s 738 mmHg 79%
    22:00 +14°C° 0 mm 4 m/s 738 mmHg 84%
    23:00 +14°C° 0.6 mm 5 m/s 738 mmHg 87%
    Mostrar mais